Tracking 32139 objects as of 16-Nov-2025
HD Live streaming from Space Station
objects crossing your sky now

STARLINK-5986

Track STARLINK-5986 now!
10-day predictions
STARLINK-5986 is classified as:


NORAD ID: 56452
Int'l Code: 2023-064E
Perigee: 576.9 km
Apogee: 581.4 km
Inclination: 70.0 °
Period: 96.1 minutes
Semi major axis: 6950 km
RCS: Unknown
Launch date: May 10, 2023
Source: United States (US)
Launch site: AIR FORCE WESTERN TEST RANGE (AFWTR)
Your satellite tracking list
Your tracking list is empty




NASA's NSSDC Master Catalog

Two Line Element Set (TLE):
1 56452U 23064E   25319.60484328  .00004124  00000-0  35322-3 0  9991
2 56452  69.9997  72.2510 0003246 269.3364  90.7423 14.98330796138151
Source of the keplerian elements: AFSPC